Date,TemperatureHighF,TemperatureAvgF,TemperatureLowF,DewpointHighF,DewpointAvgF,DewpointLowF,HumidityHigh,HumidityAvg,HumidityLow,PressureMaxIn,PressureMinIn,WindSpeedMaxMPH,WindSpeedAvgMPH,GustSpeedMaxMPH,PrecipitationSumIn
2013-2-1,32,27,20,19,13,8,77,56,43,30.18,29.71,0,0,0,0.00
2013-2-2,31,24,14,20,13,8,87,63,46,30.30,30.08,0,-10,0,0.00
2013-2-3,33,25,17,23,18,15,94,76,55,30.09,29.78,0,-4,0,0.00
2013-2-4,32,26,19,19,13,7,86,60,39,29.99,29.79,0,-7,0,0.00
2013-2-5,28,25,21,24,20,10,91,82,63,30.02,29.93,0,0,0,0.00
2013-2-6,39,31,26,29,22,4,94,70,37,30.35,29.92,0,-4,0,0.00
2013-2-7,33,26,21,18,10,3,70,50,36,30.53,30.35,0,-4,0,0.00
2013-2-8,32,29,22,32,26,17,97,89,65,30.40,29.51,0,-10,0,29.95
2013-2-9,28,23,18,23,18,7,96,82,60,30.28,29.63,0,-10,0,46.55
2013-2-10,38,23,12,22,10,1,87,59,32,30.45,30.28,0,-14,0,29.61
2013-2-11,44,34,18,44,33,14,99,95,84,30.37,29.67,0,-7,0,29.56
2013-2-12,46,39,30,40,31,24,99,76,52,29.95,29.69,0,0,0,68.28
2013-2-13,45,35,25,29,26,22,90,71,47,29.94,29.69,0,-10,0,69.72
2013-2-14,46,34,28,30,27,24,94,75,44,30.02,29.72,0,-4,0,28.68
2013-2-15,50,36,24,39,32,24,98,86,65,30.04,29.93,0,-7,0,29.45
2013-2-16,37,34,28,34,27,21,98,78,57,29.96,29.70,0,-10,0,29.70
2013-2-17,29,24,17,24,9,2,84,52,33,29.88,29.56,0,-4,0,66.40
2013-2-18,35,23,15,14,7,3,66,50,31,30.23,29.88,0,-4,0,66.76
2013-2-19,46,34,18,42,29,13,98,83,64,30.23,29.64,0,-10,0,29.85
2013-2-20,38,31,24,37,19,11,96,60,45,29.92,29.64,0,-7,0,39.13
2013-2-21,35,26,22,19,15,12,71,61,48,30.27,29.91,0,-10,0,0.00
2013-2-22,41,31,23,29,23,15,85,72,50,30.41,30.26,0,-4,0,0.00
2013-2-23,38,36,34,36,33,28,97,90,79,30.31,29.83,0,-10,0,15.52
2013-2-24,41,36,32,37,34,29,97,91,78,29.93,29.71,0,-4,0,29.26
2013-2-25,48,37,29,32,29,25,90,73,51,30.26,29.93,0,0,0,29.46
2013-2-26,42,35,28,33,30,26,95,83,59,30.33,30.03,0,0,0,68.92
2013-2-27,44,40,34,43,39,32,98,97,94,30.03,29.55,0,-7,0,69.36
2013-2-28,48,39,34,45,37,33,99,95,74,29.64,29.53,0,-7,0,68.72